• In Deutschland
  • Länderverzeichnis
  • Für 7 Tage
  • Wassertemperatur
  • Satellitenkarten
  • Wetterkarte
  • Widgets
  • user-avatar
    Anmelden

    Stündliche Wetter Bad Holzhausen

    Heute, 24 Juni, Sonntag

    Zeit Temperatur Niederschläge Wind Luftdruck Luftfeuchtigkeit
    00:00 +8°C° 0 mm 2 m/S 748 mmHg 93%
    01:00 +9°C° 0 mm 1 m/S 747 mmHg 95%
    02:00 +8°C° 0 mm 1 m/S 747 mmHg 96%
    03:00 +8°C° 0 mm 1 m/S 747 mmHg 96%
    04:00 +8°C° 0 mm 1 m/S 747 mmHg 96%
    05:00 +8°C° 0 mm 2 m/S 747 mmHg 93%
    06:00 +9°C° 0 mm 2 m/S 747 mmHg 90%
    07:00 +12°C° 0 mm 2 m/S 747 mmHg 86%
    08:00 +11°C° 0 mm 3 m/S 747 mmHg 83%
    09:00 +12°C° 0 mm 3 m/S 747 mmHg 80%
    10:00 +13°C° 0 mm 4 m/S 747 mmHg 77%
    11:00 +13°C° 0,1 mm 4 m/S 747 mmHg 79%
    12:00 +13°C° 0,1 mm 4 m/S 747 mmHg 81%
    13:00 +13°C° 0,1 mm 4 m/S 747 mmHg 82%
    14:00 +13°C° 0,1 mm 4 m/S 747 mmHg 84%
    15:00 +13°C° 0,1 mm 4 m/S 747 mmHg 87%
    16:00 +13°C° 0,1 mm 4 m/S 746 mmHg 89%
    17:00 +13°C° 0,1 mm 4 m/S 746 mmHg 90%
    18:00 +13°C° 0,1 mm 3 m/S 746 mmHg 92%
    19:00 +13°C° 0,1 mm 3 m/S 746 mmHg 93%
    20:00 +12°C° 0,1 mm 3 m/S 746 mmHg 94%
    21:00 +12°C° 0,1 mm 3 m/S 746 mmHg 95%
    22:00 +12°C° 0,1 mm 3 m/S 746 mmHg 96%
    23:00 +12°C° 0 mm 3 m/S 746 mmHg 97%

    Morgen, 25 Juni, Montag

    Zeit Temperatur Niederschläge Wind Luftdruck Luftfeuchtigkeit
    00:00 +12°C° 0 mm 3 m/S 747 mmHg 97%
    01:00 +12°C° 0 mm 3 m/S 747 mmHg 97%
    02:00 +12°C° 0,1 mm 3 m/S 747 mmHg 97%
    03:00 +12°C° 0,1 mm 3 m/S 747 mmHg 97%
    04:00 +12°C° 0,1 mm 3 m/S 747 mmHg 97%
    05:00 +12°C° 0,1 mm 3 m/S 747 mmHg 96%
    06:00 +12°C° 0,1 mm 3 m/S 747 mmHg 95%
    07:00 +12°C° 0,1 mm 3 m/S 747 mmHg 94%
    08:00 +13°C° 0 mm 3 m/S 747 mmHg 91%
    09:00 +14°C° 0 mm 3 m/S 747 mmHg 88%
    10:00 +14°C° 0 mm 3 m/S 748 mmHg 84%
    11:00 +16°C° 0 mm 3 m/S 748 mmHg 80%
    12:00 +17°C° 0 mm 3 m/S 748 mmHg 75%
    13:00 +18°C° 0 mm 3 m/S 748 mmHg 71%
    14:00 +19°C° 0 mm 4 m/S 748 mmHg 69%
    15:00 +19°C° 0 mm 4 m/S 748 mmHg 68%
    16:00 +20°C° 0 mm 4 m/S 748 mmHg 66%
    17:00 +19°C° 0 mm 4 m/S 748 mmHg 70%
    18:00 +19°C° 0 mm 4 m/S 748 mmHg 73%
    19:00 +18°C° 0 mm 3 m/S 748 mmHg 77%
    20:00 +17°C° 0 mm 3 m/S 748 mmHg 82%
    21:00 +14°C° 0 mm 3 m/S 748 mmHg 88%
    22:00 +14°C° 0 mm 2 m/S 748 mmHg 93%
    23:00 +14°C° 0 mm 2 m/S 748 mmHg 94%

    übermorgen, 26 Juni, Dienstag

    Zeit Temperatur Niederschläge Wind Luftdruck Luftfeuchtigkeit
    00:00 +13°C° 0 mm 2 m/S 748 mmHg 95%
    01:00 +13°C° 0 mm 2 m/S 748 mmHg 96%
    02:00 +13°C° 0 mm 2 m/S 748 mmHg 96%
    03:00 +13°C° 0 mm 2 m/S 748 mmHg 96%
    04:00 +13°C° 0 mm 2 m/S 748 mmHg 96%
    05:00 +13°C° 0 mm 2 m/S 748 mmHg 94%
    06:00 +14°C° 0 mm 2 m/S 748 mmHg 91%
    07:00 +14°C° 0 mm 2 m/S 748 mmHg 88%
    08:00 +15°C° 0 mm 2 m/S 748 mmHg 84%
    09:00 +16°C° 0 mm 2 m/S 748 mmHg 80%
    10:00 +17°C° 0 mm 2 m/S 748 mmHg 76%
    11:00 +18°C° 0 mm 2 m/S 748 mmHg 72%
    12:00 +19°C° 0 mm 2 m/S 748 mmHg 67%
    13:00 +21°C° 0 mm 2 m/S 748 mmHg 63%
    14:00 +21°C° 0 mm 3 m/S 748 mmHg 62%
    15:00 +22°C° 0 mm 3 m/S 748 mmHg 61%
    16:00 +24°C° 0 mm 3 m/S 748 mmHg 60%
    17:00 +22°C° 0 mm 3 m/S 748 mmHg 65%
    18:00 +21°C° 0 mm 3 m/S 748 mmHg 70%
    19:00 +20°C° 0 mm 3 m/S 748 mmHg 75%
    20:00 +19°C° 0 mm 2 m/S 748 mmHg 81%
    21:00 +17°C° 0 mm 2 m/S 748 mmHg 88%
    22:00 +15°C° 0 mm 2 m/S 749 mmHg 94%
    23:00 +14°C° 0 mm 2 m/S 749 mmHg 95%

    27 Juni, Mittwoch

    Zeit Temperatur Niederschläge Wind Luftdruck Luftfeuchtigkeit
    00:00 +13°C° 0 mm 1 m/S 749 mmHg 95%
    01:00 +13°C° 0 mm 1 m/S 749 mmHg 96%
    02:00 +12°C° 0 mm 1 m/S 749 mmHg 96%
    03:00 +12°C° 0 mm 1 m/S 749 mmHg 96%
    04:00 +12°C° 0 mm 1 m/S 748 mmHg 96%
    05:00 +13°C° 0 mm 1 m/S 749 mmHg 92%
    06:00 +14°C° 0 mm 1 m/S 749 mmHg 89%
    07:00 +16°C° 0 mm 1 m/S 749 mmHg 85%
    08:00 +19°C° 0 mm 1 m/S 749 mmHg 80%
    09:00 +21°C° 0 mm 1 m/S 749 mmHg 74%
    10:00 +23°C° 0 mm 1 m/S 749 mmHg 68%
    11:00 +24°C° 0 mm 2 m/S 749 mmHg 65%
    12:00 +25°C° 0 mm 2 m/S 749 mmHg 61%
    13:00 +26°C° 0 mm 2 m/S 748 mmHg 57%
    14:00 +26°C° 0 mm 3 m/S 748 mmHg 57%
    15:00 +26°C° 0 mm 3 m/S 748 mmHg 57%
    16:00 +26°C° 0 mm 3 m/S 748 mmHg 57%
    17:00 +25°C° 0,1 mm 3 m/S 748 mmHg 62%
    18:00 +24°C° 0,1 mm 3 m/S 748 mmHg 67%
    19:00 +24°C° 0,1 mm 3 m/S 748 mmHg 72%
    20:00 +21°C° 0 mm 3 m/S 748 mmHg 74%
    21:00 +19°C° 0 mm 3 m/S 748 mmHg 75%
    22:00 +17°C° 0 mm 3 m/S 748 mmHg 77%
    23:00 +16°C° 0 mm 3 m/S 748 mmHg 80%

    28 Juni, Donnerstag

    Zeit Temperatur Niederschläge Wind Luftdruck Luftfeuchtigkeit
    00:00 +13°C° 0 mm 3 m/S 748 mmHg 83%
    01:00 +13°C° 0 mm 2 m/S 748 mmHg 87%
    02:00 +13°C° 0 mm 2 m/S 748 mmHg 89%
    03:00 +12°C° 0 mm 2 m/S 748 mmHg 91%
    04:00 +10°C° 0 mm 2 m/S 748 mmHg 94%
    05:00 +13°C° 0 mm 2 m/S 748 mmHg 91%
    06:00 +14°C° 0 mm 2 m/S 748 mmHg 87%
    07:00 +15°C° 0 mm 2 m/S 748 mmHg 84%
    08:00 +17°C° 0 mm 3 m/S 748 mmHg 78%
    09:00 +19°C° 0 mm 3 m/S 747 mmHg 72%
    10:00 +20°C° 0 mm 4 m/S 747 mmHg 66%
    11:00 +21°C° 0 mm 4 m/S 747 mmHg 62%
    12:00 +22°C° 0 mm 4 m/S 747 mmHg 59%
    13:00 +25°C° 0 mm 4 m/S 746 mmHg 56%
    14:00 +25°C° 0 mm 4 m/S 746 mmHg 56%
    15:00 +25°C° 0 mm 4 m/S 746 mmHg 56%
    16:00 +25°C° 0 mm 4 m/S 745 mmHg 57%
    17:00 +23°C° 0 mm 4 m/S 745 mmHg 61%
    18:00 +23°C° 0 mm 4 m/S 745 mmHg 66%
    19:00 +22°C° 0 mm 4 m/S 745 mmHg 71%
    20:00 +20°C° 0 mm 3 m/S 745 mmHg 75%
    21:00 +18°C° 0 mm 3 m/S 745 mmHg 79%
    22:00 +17°C° 0 mm 3 m/S 745 mmHg 83%
    23:00 +16°C° 0 mm 3 m/S 744 mmHg 86%

    29 Juni, Freitag

    Zeit Temperatur Niederschläge Wind Luftdruck Luftfeuchtigkeit
    00:00 +15°C° 0 mm 2 m/S 744 mmHg 89%
    01:00 +14°C° 0 mm 2 m/S 744 mmHg 92%
    02:00 +14°C° 0 mm 2 m/S 744 mmHg 93%
    03:00 +14°C° 0 mm 2 m/S 744 mmHg 94%
    04:00 +13°C° 0 mm 2 m/S 743 mmHg 95%
    05:00 +15°C° 0 mm 2 m/S 743 mmHg 91%
    06:00 +16°C° 0 mm 3 m/S 743 mmHg 88%
    07:00 +17°C° 0 mm 3 m/S 743 mmHg 84%
    08:00 +19°C° 0 mm 4 m/S 743 mmHg 78%
    09:00 +20°C° 0 mm 4 m/S 743 mmHg 71%
    10:00 +22°C° 0 mm 5 m/S 743 mmHg 65%
    11:00 +23°C° 0 mm 5 m/S 743 mmHg 62%
    12:00 +23°C° 0 mm 5 m/S 742 mmHg 58%
    13:00 +24°C° 0 mm 6 m/S 742 mmHg 55%
    14:00 +24°C° 0 mm 6 m/S 742 mmHg 54%
    15:00 +24°C° 0 mm 6 m/S 742 mmHg 54%
    16:00 +23°C° 0 mm 6 m/S 742 mmHg 54%
    17:00 +22°C° 0 mm 5 m/S 742 mmHg 60%
    18:00 +21°C° 0 mm 5 m/S 742 mmHg 66%
    19:00 +19°C° 0 mm 4 m/S 742 mmHg 71%
    20:00 +18°C° 0 mm 4 m/S 742 mmHg 78%
    21:00 +15°C° 0 mm 4 m/S 743 mmHg 84%
    22:00 +13°C° 0 mm 3 m/S 743 mmHg 91%
    23:00 +13°C° 0 mm 3 m/S 743 mmHg 90%
    Mehr zeigen